map of CPO home
CPO - Airport
Location
City:  Copiapó, Atacama, Chile
Name:Desierto de Atacama Airport
ICAO:SCAT
IATA:CPO

Details
Type:Airport (Aerodrome, Airfield)
Use:Public/Civil
Latitude:27°15'42"S (-27.261666)
Longitude:70°46'45"W (-70.779166)
Elevation:670 ft (204 m)
Variation:1.63°W (WMM2015 magnetic declination)
-0.18° annual change
Runways:1
Longest:7218 × 148 ft (2200 × 45 m), paved

Time
Time Zone:UTC-4 (DST-3)
Local Time:

Weather
METAR:SCAT 240000Z 25009KT 9999 BKN017 18/14 Q1011
TAF:SCAT 232243Z 2400/2424 27010KT 9999 FEW020 TN17/2406Z TX23/2418Z
BECMG 2401/2403 23005KT OVC013
BECMG 2405/2407 33004KT
BECMG 2413/2414 SCT020
BECMG 2415/2417 27010KT CAVOK

Related Locations
Nearby:
Farthest:HJJ: 12417 mi / 19983 km
Huaihua [Zhijiang Airport], 43, CN

Find:

   beyond  
but within

Other Information
Maps:
NOTAMs:
Links:
Sources:

  
  • flag of Chile
  • flag of Atacama
  

Sectional Chart

Flight Planning
at skyvector.com

Satellite Image

Google Maps Satellite view

 

Copyright © 2004-2019 Karl L. Swartz. All rights reserved.
The Great Circle Mapper name and logo are trademarks of the Great Circle Mapper.
All other trademarks mentioned herein belong to their respective owners.
Please see credits for attibutions and further copyright information.

  Follow gcmap on Facebook Follow gcmap on Twitter Follow gcmap on Google+ GCmap on LinkedIn

hCard Microformat

Geo Microformat